Главная страница
METAR-TAF:

METAR-TAF

Аэропорты :

Meierwik

Глюксбург, Германия

широта: 54-50N, долгота: 009-30E, высота над уровнем моря: 27 м

Текущие метеонаблюдения

Эта сводка был подготовлена 32 минут назад, в 22:20 UTC
Ветер 7 Узел от западный-юго-западный
Температура 11°C
Влажность 87%
Давление 1014 hPa
Видимость 10 км и более
Отдельные облака на высоте 6000 фута

METAR: ETGG 232220Z 24007KT 9999 SCT060 11/09 Q1014 BLU+

Время: 00:52 (22:52 UTC)


TAF: отсутствует

Метеонаблюдения и прогнозы для более 4000 аэропортов (сводки METAR и TAF).

Имеющиеся станции представлены на карте желтыми и красными точками.

Чтобы увидеть название станции, наведите на нее мышь.

Затем щелкните, чтобы увидеть метеонаблюдения и метеопрогнозы.

Управление картой: чтобы увеличить масштаб, щелкните зеленые кнопки с черным крестиком; чтобы уменьшить масштаб, щелкните зеленую кнопку с тире; для просмотра соседних карт щелкайте зеленые стрелки.


METAR-TAF: